Home   Weather   Washington DC   Past weeks

Flag for USA Past Weather in Washington DC, USA — Yesterday and Last 2 Weeks

Now
57 °F

Scattered clouds.


Feels Like: 54 °F
Forecast: 45 / 56 °F
Wind: 13 mph from Northwest

Location: Reagan National Airport

Current Time: Jan 18, 2017 at 11:24:12 am

Latest Report: Jan 18, 2017 at 10:52 am


Visibility: 10 mi

Pressure: 29.95 "Hg

Humidity: 62%

Dew Point: 44 °F

Location of Washington DCLocation

Past Weather in Washington DC — Graph

°F

Washington DC Temperature Yesterday

Maximum temperature yesterday: 51 °F (at 6:52 pm)
Minimum temperature yesterday: 41 °F (at 1:00 am)
Average temperature yesterday: 46 °F

High & Low Weather Summary for the Past Weeks

 TemperatureHumidityPressure
High72 °F (Jan 12, 2:52 pm)100% (Jan 3, 9:52 am)30.80 "Hg (Jan 3, 9:52 am)
Low15 °F (Jan 8, 6:52 am)24% (Jan 4, 5:52 pm)29.54 "Hg (Jan 4, 12:52 am)
Average39 °F67%30.24 "Hg
* Reported Jan 3 9:36 am — Jan 18 9:52 am, Washington DC, Weather by CustomWeather, © 2017

Note: Actual official high and low records may vary slightly from our data, if they occured in-between our weather recording intervals... More about our weather records

Advertising

Washington DC Weather History for the Previous 24 Hours

Scroll right to see more
 ConditionsComfort  
Time TempWeatherWind HumidityBarometerVisibility
9:52 am
Wed, Jan 18
53 °FPartly sunny.13 mph74%29.96 "Hg10 mi
8:52 am52 °FPartly sunny.15 mph77%29.93 "Hg10 mi
7:52 am46 °FFog.5 mph100%29.91 "Hg5 mi
7:25 am47 °FFog.3 mph100%29.91 "Hg3 mi
6:42 am44 °FFog.3 mph100%29.91 "Hg1 mi
6:00 am47 °FFog.No wind100%29.91 "Hg2 mi
4:52 am47 °FFog.3 mph100%29.90 "Hg4 mi
3:52 am47 °FFog.6 mph97%29.89 "Hg4 mi
2:55 am46 °FFog.5 mph100%29.88 "Hg3 mi
2:30 am46 °FFog.5 mph100%29.89 "Hg1 mi
1:52 am46 °FFog.7 mph100%29.88 "Hg0 mi
12:55 am45 °FFog.8 mph100%29.88 "Hg0 mi
12:37 am45 °FFog.7 mph100%29.88 "Hg1 mi
12:01 am47 °FFog.No wind100%29.88 "Hg0 mi
11:02 pm
Tue, Jan 17
47 °FFog.8 mph100%29.91 "Hg2 mi
10:19 pm48 °FFog.No wind100%29.92 "Hg5 mi
9:33 pm51 °FFog.7 mph100%29.92 "Hg5 mi
8:52 pm50 °FFog.No wind100%29.94 "Hg4 mi
7:59 pm49 °FDrizzle. Fog.3 mph97%29.96 "Hg3 mi
6:52 pm51 °FFog.3 mph100%29.96 "Hg6 mi
6:13 pm48 °FFog.8 mph100%29.96 "Hg3 mi
5:52 pm50 °FFog.6 mph96%29.97 "Hg6 mi
5:06 pm50 °FFog.6 mph96%29.99 "Hg5 mi
3:57 pm48 °FFog.7 mph100%30.00 "Hg6 mi
3:52 pm48 °FFog.7 mph100%30.00 "Hg6 mi
3:18 pm47 °FLight rain. Fog.8 mph100%30.02 "Hg2 mi
2:33 pm47 °FLight rain. Fog.No wind100%30.04 "Hg3 mi
1:52 pm47 °FFog.7 mph93%30.05 "Hg5 mi
12:52 pm47 °FLight rain. Fog.14 mph93%30.09 "Hg6 mi
11:52 am47 °FFog.9 mph93%30.10 "Hg6 mi
Weather by CustomWeather, © 2017

See weather overviewHow to use our weather pages